Location: Keppel Henge
(44.7900°N, 80.9447°W)
Time: 07:34:24
(UTC-05:00)

Vanguard 1 Rocket - Pass Details

Date: 29 October 2017
Orbit: 655 x 4222 km, 34.3° (Epoch: 18 November)

Event Time Altitude Azimuth Distance (km) Brightness Sun altitude
Rises 10:44:46 0° 266° (W) 4,130 10.5 23.2°
Reaches altitude 10° 10:49:13 10° 245° (WSW) 2,651 9.7 23.7°
Maximum altitude 10:52:29 15° 211° (SSW) 2,008 9.6 24.0°
Drops below altitude 10° 10:55:14 10° 175° (S) 2,160 10.5 24.3°
Sets 10:58:17 0° 150° (SSE) 2,966 11.5 24.6°
